Canadian, TX

8:58 AM CST on December 07, 2019 (GMT -0600)
Hemphill County

Weather History for KHHF - October, 2019

Change the Weather History Date:

Friday, October 11, 2019

  Actual Average (KPPA) Record (KPPA)
Temperature  
Mean Temperature 42 °F -  
Max Temperature 55 °F 73 °F 94 °F (2016)
Min Temperature 30 °F 46 °F 36 °F (1977)
Degree Days  
Heating Degree Days 22    
Moisture  
Dew Point 21 °F    
Average Humidity 50    
Maximum Humidity 84    
Minimum Humidity 22    
Precipitation  
Precipitation 0.00 in - - ()
Sea Level Pressure  
Sea Level Pressure 30.33 in    
Wind  
Wind Speed 13 mph (NW)    
Max Wind Speed 22 mph    
Max Gust Speed 32 mph    
Visibility 10 miles    
Events      
Averages and records for this station are not official NWS values.
T = Trace of Precipitation, MM = Missing Value Source: NWS Daily Summary

Daily Weather History Graph

Daily Weather History Graph

Search for Another Location

Airport or City:

Astronomy

Oct. 11, 2019 Rise Set
Actual Time 7:44 AM CDT 7:11 PM CDT
Civil Twilight 7:19 AM CDT 7:37 PM CDT
Nautical Twilight 6:49 AM CDT 8:06 PM CDT
Astronomical Twilight 6:19 AM CDT 8:36 PM CDT
Moon 6:35 PM CDT (10/11) 5:33 AM CDT (10/11)
Length of Visible Light 12h 18m
Length of Day
11h 26m
Waxing Gibbous, 96% of the Moon is Illuminated
Oct 11
Waxing Gibbous
Oct 13
Full
Oct 21
Last Quarter
Oct 27
New
Nov 4
First Quarter

Hourly Weather History & Observations

Time (CDT) Temp. Windchill Dew Point Humidity Pressure Visibility Wind Dir Wind Speed Gust Speed Precip Events Conditions
12:15 AM 38.1 °F 29.1 °F 26.2 °F 62% 30.24 in 10.0 mi North 16.1 mph 25.3 mph N/A   Clear
12:35 AM 37.6 °F 28.1 °F 26.8 °F 65% 30.25 in 10.0 mi North 17.3 mph 25.3 mph N/A   Clear
12:55 AM 38.3 °F 28.7 °F 27.1 °F 64% 30.26 in 10.0 mi North 18.4 mph 23.0 mph N/A   Clear
1:15 AM 38.3 °F 27.8 °F 26.8 °F 63% 30.26 in 10.0 mi North 21.9 mph 27.6 mph N/A   Clear
1:35 AM 37.4 °F 28.2 °F 27.3 °F 67% 30.26 in 10.0 mi North 16.1 mph 21.9 mph N/A   Clear
1:55 AM 37.6 °F 27.4 °F 25.5 °F 62% 30.26 in 10.0 mi North 19.6 mph 26.5 mph N/A   Scattered Clouds
2:15 AM 37.4 °F 27.8 °F 23.5 °F 57% 30.27 in 10.0 mi North 17.3 mph 32.2 mph N/A   Scattered Clouds
2:35 AM 37.0 °F 26.7 °F 23.5 °F 58% 30.28 in 10.0 mi North 19.6 mph 27.6 mph N/A   Scattered Clouds
2:55 AM 36.9 °F 26.2 °F 23.4 °F 58% 30.29 in 10.0 mi North 20.7 mph 25.3 mph N/A   Mostly Cloudy
3:15 AM 36.5 °F 27.4 °F 23.0 °F 58% 30.28 in 10.0 mi North 15.0 mph 25.3 mph N/A   Scattered Clouds
3:35 AM 36.0 °F 26.7 °F 22.6 °F 58% 30.29 in 10.0 mi North 15.0 mph 19.6 mph N/A   Clear
3:55 AM 35.4 °F 27.8 °F 23.0 °F 61% 30.29 in 10.0 mi North 10.4 mph - N/A   Clear
4:15 AM 35.1 °F 26.9 °F 23.0 °F 61% 30.30 in 10.0 mi North 11.5 mph - N/A   Clear
4:35 AM 34.9 °F 26.2 °F 21.4 °F 58% 30.31 in 10.0 mi North 12.7 mph 23.0 mph N/A   Clear
4:55 AM 33.8 °F 27.0 °F 22.1 °F 62% 30.32 in 10.0 mi North 8.1 mph - N/A   Clear
5:15 AM 33.4 °F 23.9 °F 22.5 °F 64% 30.32 in 10.0 mi NNW 13.8 mph - N/A   Clear
5:35 AM 32.7 °F 23.9 °F 22.1 °F 65% 30.33 in 10.0 mi NNW 11.5 mph - N/A   Clear
5:55 AM 32.4 °F 24.0 °F 21.2 °F 63% 30.33 in 10.0 mi NNW 10.4 mph 16.1 mph N/A   Clear
6:15 AM 32.0 °F 23.6 °F 21.4 °F 65% 30.34 in 10.0 mi NNW 10.4 mph - N/A   Clear
6:35 AM 31.8 °F 23.9 °F 21.2 °F 65% 30.35 in 10.0 mi NNW 9.2 mph - N/A   Clear
6:55 AM 31.1 °F 22.4 °F 21.0 °F 66% 30.36 in 10.0 mi NNW 10.4 mph - N/A   Clear
7:15 AM 30.6 °F 21.8 °F 20.5 °F 66% 30.37 in 10.0 mi NNW 10.4 mph - N/A   Clear
7:35 AM 30.0 °F 23.2 °F 20.5 °F 68% 30.38 in 10.0 mi NNW 6.9 mph - N/A   Clear
7:55 AM 30.0 °F 23.2 °F 19.9 °F 66% 30.38 in 10.0 mi NNW 6.9 mph - N/A   Clear
8:15 AM 30.2 °F 22.6 °F 19.4 °F 64% 30.39 in 10.0 mi NNW 8.1 mph - N/A   Clear
8:35 AM 31.1 °F 23.7 °F 20.1 °F 64% 30.40 in 10.0 mi NW 8.1 mph - N/A   Clear
8:55 AM 32.2 °F 23.8 °F 19.6 °F 60% 30.40 in 10.0 mi NW 10.4 mph - N/A   Clear
9:15 AM 33.1 °F 24.4 °F 19.6 °F 58% 30.41 in 10.0 mi NNW 11.5 mph 17.3 mph N/A   Clear
9:35 AM 35.2 °F 25.8 °F 19.0 °F 52% 30.42 in 10.0 mi NNW 15.0 mph - N/A   Clear
9:55 AM 37.2 °F 28.3 °F 16.5 °F 43% 30.42 in 10.0 mi North 15.0 mph - N/A   Clear
10:15 AM 38.5 °F 30.3 °F 16.3 °F 41% 30.42 in 10.0 mi North 13.8 mph 19.6 mph N/A   Clear
10:35 AM 39.4 °F 31.8 °F 16.0 °F 39% 30.42 in 10.0 mi North 12.7 mph - N/A   Clear
10:55 AM 40.5 °F 32.5 °F 15.6 °F 37% 30.43 in 10.0 mi NNW 15.0 mph 18.4 mph N/A   Clear
11:15 AM 42.1 °F 35.2 °F 16.3 °F 35% 30.42 in 10.0 mi North 12.7 mph - N/A   Clear
11:35 AM 43.3 °F 36.5 °F 16.5 °F 34% 30.41 in 10.0 mi NNW 13.8 mph - N/A   Clear
11:55 AM 44.8 °F 38.0 °F 16.7 °F 32% 30.41 in 10.0 mi NNE 15.0 mph 19.6 mph N/A   Clear
12:15 PM 45.9 °F 39.4 °F 17.2 °F 32% 30.41 in 10.0 mi NNW 15.0 mph - N/A   Clear
12:35 PM 46.8 °F - 18.1 °F 32% 30.41 in 10.0 mi NW 12.7 mph - N/A   Clear
12:55 PM 47.3 °F - 17.8 °F 31% 30.40 in 10.0 mi NW 11.5 mph 19.6 mph N/A   Clear
1:15 PM 48.6 °F - 17.4 °F 29% 30.39 in 10.0 mi NNW 13.8 mph 17.3 mph N/A   Clear
1:35 PM 48.7 °F - 17.1 °F 28% 30.39 in 10.0 mi NNW 16.1 mph 21.9 mph N/A   Clear
1:55 PM 50.0 °F - 18.0 °F 28% 30.38 in 10.0 mi NW 15.0 mph 20.7 mph N/A   Clear
2:15 PM 50.9 °F - 18.0 °F 27% 30.36 in 10.0 mi NW 9.2 mph 18.4 mph N/A   Clear
2:35 PM 51.1 °F - 17.6 °F 27% 30.35 in 10.0 mi North 13.8 mph 21.9 mph N/A   Clear
2:55 PM 52.7 °F - 17.8 °F 25% 30.34 in 10.0 mi North 12.7 mph 19.6 mph N/A   Clear
3:15 PM 52.7 °F - 17.6 °F 25% 30.33 in 10.0 mi NW 6.9 mph 18.4 mph N/A   Clear
3:35 PM 52.9 °F - 17.4 °F 25% 30.32 in 10.0 mi NNW 15.0 mph 19.6 mph N/A   Clear
3:55 PM 53.8 °F - 17.1 °F 24% 30.31 in 10.0 mi NNW 9.2 mph 17.3 mph N/A   Clear
4:15 PM 54.9 °F - 17.4 °F 23% 30.31 in 10.0 mi NW 9.2 mph - N/A   Clear
4:35 PM 54.9 °F - 16.7 °F 22% 30.31 in 10.0 mi NW 10.4 mph 17.3 mph N/A   Clear
4:55 PM 54.9 °F - 16.7 °F 22% 30.30 in 10.0 mi North 9.2 mph - N/A   Clear
5:15 PM 55.4 °F - 17.2 °F 22% 30.29 in 10.0 mi WNW 9.2 mph - N/A   Clear
5:35 PM 55.0 °F - 16.2 °F 22% 30.29 in 10.0 mi WNW 9.2 mph 17.3 mph N/A   Clear
5:55 PM 54.9 °F - 16.3 °F 22% 30.29 in 10.0 mi WNW 4.6 mph - N/A   Clear
6:15 PM 54.9 °F - 17.4 °F 23% 30.28 in 10.0 mi NW 6.9 mph - N/A   Clear
6:35 PM 54.0 °F - 17.8 °F 24% 30.28 in 10.0 mi WNW 4.6 mph - N/A   Clear
6:55 PM 52.7 °F - 18.5 °F 26% 30.28 in 10.0 mi Calm Calm - N/A   Clear
7:15 PM 50.4 °F - 20.3 °F 31% 30.28 in 10.0 mi SW 3.5 mph - N/A   Clear
7:35 PM 46.9 °F - 22.6 °F 38% 30.28 in 10.0 mi South 3.5 mph - N/A   Clear
7:55 PM 41.7 °F 38.8 °F 24.4 °F 50% 30.28 in 10.0 mi South 4.6 mph - N/A   Clear
8:15 PM 41.4 °F 38.4 °F 23.9 °F 50% 30.28 in 10.0 mi South 4.6 mph - N/A   Clear
8:35 PM 38.1 °F 35.7 °F 25.0 °F 59% 30.28 in 10.0 mi SW 3.5 mph - N/A   Clear
8:55 PM 38.8 °F 36.5 °F 25.5 °F 59% 30.28 in 5.0 mi SW 3.5 mph - N/A   Haze
9:15 PM 36.0 °F 32.1 °F 26.4 °F 68% 30.28 in 10.0 mi SW 4.6 mph - N/A   Clear
9:35 PM 35.8 °F 31.9 °F 26.4 °F 69% 30.28 in 10.0 mi SW 4.6 mph - N/A   Clear
9:55 PM 36.0 °F 31.1 °F 27.5 °F 71% 30.28 in 10.0 mi SW 5.8 mph - N/A   Clear
10:15 PM 34.9 °F 32.0 °F 27.5 °F 74% 30.29 in 10.0 mi SW 3.5 mph - N/A   Clear
10:35 PM 34.9 °F 32.0 °F 27.3 °F 74% 30.29 in 10.0 mi SW 3.5 mph - N/A   Clear
10:55 PM 34.0 °F 31.0 °F 28.0 °F 79% 30.29 in 10.0 mi SW 3.5 mph - N/A   Clear
11:15 PM 33.4 °F 30.4 °F 27.9 °F 80% 30.29 in 10.0 mi SW 3.5 mph - N/A   Clear
11:35 PM 32.5 °F 29.3 °F 27.3 °F 81% 30.28 in 10.0 mi SW 3.5 mph - N/A   Clear
11:55 PM 32.2 °F 28.9 °F 27.9 °F 84% 30.28 in 10.0 mi SW 3.5 mph - N/A   Clear